Regional Weather Roundup
Issued by NWS Charleston, SC

Current Version | Previous Version | Text Only | Print | Product List | Glossary Off
Versions: 1 2 3 4 5 6 7 8 9 10 11 12 13 14 15 16 17 18 19 20 21 22 23 24 25 26 27 28 29 30 31 32 33 34 35 36 37 38 39 40 41 42 43 44 45 46 47 48 49 50
000 ASUS42 KCHS 282112 RWRCHS REGIONAL WEATHER ROUNDUP NATIONAL WEATHER SERVICE CHARLESTON SC 500 PM EDT SUN MAY 28 2017 NOTE: "FAIR" INDICATES FEW OR NO CLOUDS BELOW 12,000 FEET WITH NO SIGNIFICANT WEATHER AND/OR OBSTRUCTIONS TO VISIBILITY. NOT ALL STATIONS ARE QUALITY CONTROLLED. USE DATA WITH CAUTION... ESPECIALLY DEWPOINT OBSERVATIONS. SCZ027-030-031-034>040-042>050-282200- ...SOUTHEAST SOUTH CAROLINA... CITY SKY/WX TMP DP RH WIND PRES REMARKS N CHARLESTON CLOUDY 87 70 56 W14G22 29.88S HX 92 WATERFRONT PRK N/A 86 74 67 SW8 29.86F HX 94 JOHNS ISLAND FAIR 84 77 79 S13 29.88F HX 94 PINOPOLIS N/A 88 73 62 SW13 29.78F HX 96 MONCKS CORNER MOCLDY 86 68 54 SW14 29.86S SUMMERVILLE FAIR 88 72 58 SW9G18 29.88S HX 94 BEAUFORT MCAS MOSUNNY 89 75 63 W9G18 29.88F HX 99 BEAUFORT ARPT FAIR 90 73 58 W7 29.88F HX 98 HILTON HEAD IS MOSUNNY 91 72 52 SW9 29.89F HX 98 WALTERBORO PTCLDY 88 70 55 SW13G18 29.88F HX 92 ALLENDALE FAIR 86 72 62 SW9 29.85F HX 92 ...SOUTHERN MIDLANDS AND PEE DEE... CITY SKY/WX TMP DP RH WIND PRES REMARKS GEORGETOWN NOT AVBL KINGSTREE FAIR 88 70 55 SW8G16 29.84F HX 92 ORANGEBURG MOSUNNY 86 71 60 SW16G25 29.85F HX 91 BARNWELL FAIR 88 73 62 SW12G17 29.86F HX 96 AIKEN FAIR 86 70 58 S14 29.88F HX 90 MANNING FAIR 90 73 58 SW18G33 29.84F HX 98 COLUMBIA PTSUNNY 90 69 50 SW14 29.82F HX 94 SUMTER SUNNY 89 69 52 SW17 29.81S HX 93 FLORENCE MOSUNNY 88 70 55 SW16 29.82F HX 93 MYRTLE BEACH MOSUNNY 90 72 55 SW16G23 29.84F HX 96 N MYRTLE BEACH CLOUDY 84 74 71 SW20 29.83F HX 91 $$ GAZ063-065-086>088-099>101-113>116-118-119-134>141-150-282200- ...SOUTHEAST GEORGIA... CITY SKY/WX TMP DP RH WIND PRES REMARKS SAVANNAH ARPT PTSUNNY 94 67 41 W15 29.89F HX 97 HUNTER AAF MOSUNNY 92 77 60 W9G20 29.87F HX 105 FORT STEWART SUNNY 93 66 41 W14G22 29.88F HX 95 STATESBORO SUNNY 91 70 49 W16 29.89F HX 96 SYLVANIA PTCLDY 91 71 52 W9G18 29.89F HX 96 CLAXTON FAIR 90 73 57 SW10G18 29.90F HX 99 ...CSRA...CENTRAL AND FAR SOUTHEAST GEORGIA... CITY SKY/WX TMP DP RH WIND PRES REMARKS THOMSON PTSUNNY 87 71 57 W7 29.89F HX 93 AUGUSTA-BUSH PTSUNNY 90 71 53 SW12G23 29.84F HX 96 AUGUSTA-DANIEL CLOUDY 89 68 49 S17 29.86F HX 93 SWAINSBORO FAIR 90 70 51 SW14G21 29.90F HX 95 VIDALIA SUNNY 91 68 46 W12 29.91F HX 95 EASTMAN FAIR 91 53 27 SW8G21 29.92F HAZLEHURST FAIR 93 67 42 W5 29.92F HX 96 ALMA SUNNY 93 66 40 W15G22 29.93F HX 96 WAYCROSS SUNNY 96 71 44 W13G20 29.93F HX 104 JESUP FAIR 93 61 33 W9G20 29.92F HX 93 BAXLEY FAIR 93 72 49 W13 29.92F HX 100 BRUNSWICK MOSUNNY 93 72 49 W12 29.93F HX 100 SAINT SIMONS SUNNY 94 68 42 W13 29.92F HX 98 $$ SCZ027-028-034-036>038-045-046-048>050-GAZ119-141-282200- ...LAKE AND SUPPLEMENTAL COASTAL OBSERVATIONS... STATION/POSITION TIME TEMP WIND PRES WAVE SWELL AIR SEA DIR/SP/G HT/PER HT/PER/DIR (UTC) (F) (DEG/KT/KT) (MB) (FT/S) (FT/S/D) WINYAH BAY 1945 89 260/ 10 1011.0 LAKE MURRAY 2020 86 250/ 9/ 15 1009.5 ACE BASIN NERRS NOT AVBL FORT PULASKI 2048 90 260/ 9/ 13 1012.4F SAPELO ISLAND 2000 90 260/ 15 1014.0 $$ ANZ835-935-AMZ111-154-330-350-352-354-370-450-454-472-282200- ...C-MAN AND BUOY OBSERVATIONS... STATION/POSITION TIME TEMP WIND PRES WAVE SWELL AIR SEA DIR/SP/G HT/PER HT/PER/DIR (UTC) (F) (DEG/KT/KT) (MB) (FT/S) (FT/S/D) BUOY 41004 2050 77 76 220/ 14/ 17 1012.4F 3/ 5 2/ 50/11 BUOY 41008 2050 81 79 190/ 10/ 12 1013.2F 2/ 8 2/100/ 8 FOLLY BEACH CMAN 2000 80 210/ 13/ 15 1013.2F CAPERS NEARSHORE 2008 82 78 220/ 17/ 21 1011.7F FRIPP NEARSHORE 2008 81 80 210/ 12/ 16 1012.5F STATION/POSITION TIME TEMP WIND PRES WAVE SWELL AIR SEA DIR/SP/G HT/PER HT/PER/DIR (UTC) (F) (DEG/KT/KT) (MB) (FT/S) (FT/S/D) 5E ST. MARYS GA 2030 81 N/A 1/ 9 FRYING PAN BUOY 2050 77 75 210/ 17/ 21 1011.1F 4/ 5 BUOY 41025 2050 78 77 210/ 17/ 21 1009.1F 4/ 6 2/ 60/11 CAPE LOOKOUT NC 2000 79 210/ 13/ 18 1009.6F BUOY 41002 1950 77 77 220/ 12/ 14 1015.6 4/ 5 2/180/ 6 BUOY 41010 2050 80 80 260/ 8/ 8 1015.8F 2/ 8 2/ 80/ 8 ST AUGUSTINE FL 2100 85 80 130/ 3/ 6 1015.3F $$

USA.gov is the U.S. government's official web portal to all federal, state and local government web resources and services.